This is the latest recevied weather packets stored in our database for station/object K7FRY. If no packets are shown the sender has not sent any weather packets the latest 10 day(s).
| Time | Temp. | Humidity | Pressure | Rain* | Wind** | Luminosity | Snow |
|---|---|---|---|---|---|---|---|
| 1776988615 | 26.11° C | 22% | 1012.2 hPa | 0 mm | - | 140 W/m² | - |
| 1776988311 | 26.11° C | 22% | 1011.9 hPa | 0 mm | - | 146 W/m² | - |
| 1776988008 | 26.67° C | 22% | 1012.2 hPa | 0 mm | - | 151 W/m² | - |
| 1776987704 | 26.67° C | 22% | 1012.4 hPa | 0 mm | - | 157 W/m² | - |
| 1776987401 | 27.22° C | 22% | 1012.3 hPa | 0 mm | - | 215 W/m² | - |
| 1776987098 | 27.22° C | 21% | 1012.2 hPa | 0 mm | - | 392 W/m² | - |
| 1776986793 | 27.22° C | 21% | 1012.3 hPa | 0 mm | - | 274 W/m² | - |
| 1776986490 | 27.22° C | 22% | 1012.2 hPa | 0 mm | - | 482 W/m² | - |
| 1776986186 | 26.67° C | 22% | 1012.4 hPa | 0 mm | - | 401 W/m² | - |
| 1776985883 | 26.11° C | 22% | 1012.3 hPa | 0 mm | - | 335 W/m² | - |
| 1776985581 | 26.11° C | 22% | 1012.4 hPa | 0 mm | - | 271 W/m² | - |
| 1776985276 | 26.67° C | 22% | 1012.6 hPa | 0 mm | - | 280 W/m² | - |
| 1776984973 | 26.67° C | 22% | 1012.2 hPa | 0 mm | - | 299 W/m² | - |
| 1776984669 | 26.11° C | 22% | 1012.4 hPa | 0 mm | - | 306 W/m² | - |
| 1776984364 | 26.11° C | 22% | 1012.6 hPa | 0 mm | - | 258 W/m² | - |
| 1776984061 | 26.67° C | 22% | 1012.5 hPa | 0 mm | - | 231 W/m² | - |
| 1776983755 | 26.11° C | 22% | 1012.6 hPa | 0 mm | - | 237 W/m² | - |
| 1776983452 | 26.11° C | 22% | 1012.7 hPa | 0 mm | - | 243 W/m² | - |
| 1776983149 | 26.67° C | 22% | 1012.5 hPa | 0 mm | - | 276 W/m² | - |
| 1776982846 | 26.11° C | 22% | 1012.4 hPa | 0 mm | - | 284 W/m² | - |
| 1776982544 | 26.11° C | 22% | 1012.8 hPa | 0 mm | - | 272 W/m² | - |
| 1776982244 | 26.67° C | 22% | 1012.8 hPa | 0 mm | - | 275 W/m² | - |
| 1776981938 | 27.22° C | 21% | 1012.8 hPa | 0 mm | - | 363 W/m² | - |
| 1776981634 | 26.67° C | 21% | 1012.6 hPa | 0 mm | - | 365 W/m² | - |
| 1776981330 | 26.67° C | 21% | 1012.7 hPa | 0 mm | - | 320 W/m² | - |
* Rain latest hour (hover to see other rain measurements)
** Current wind speed in m/s (hover to see current wind gust speed)